National Weather Service United States Department of Commerce


000
ASUS42 KCAE 181010
RWRCAE
REGIONAL WEATHER ROUNDUP
NATIONAL WEATHER SERVICE COLUMBIA SC
600 AM EDT FRI AUG 18 2017

NOTE: "FAIR" INDICATES FEW OR NO CLOUDS BELOW 12,000 FEET WITH NO
SIGNIFICANT WEATHER AND/OR OBSTRUCTIONS TO VISIBILITY.

NOT ALL STATIONS ARE QUALITY CONTROLLED BY THE NATIONAL
WEATHER SERVICE. USE DATA WITH CAUTION...ESPECIALLY
DEWPOINT OBSERVATIONS.

SCZ001>056-GAZ040-063>065-077-181100-
...UPSTATE SOUTH CAROLINA...

CITY SKY/WX TMP DP RH WIND PRES REMARKS
ANDERSON CLEAR 76 72 87 SW3 29.98R
LIBERTY SUNNY 71 71 99 SW3 29.97R
SPARTANBURG CLEAR 73 70 88 CALM 29.95R
CLEMSON CLEAR 75 73 93 W7 29.98R
GREENVILLE CLEAR 76 71 85 W6 29.98R
GREENWOOD CLEAR 75 74 96 SW6 29.98R
GREER CLEAR 75 73 93 W5 29.96R
ROCK HILL CLEAR 74 74 100 SW6 29.95R
CHESTER SUNNY 73 73 100 SW3 29.96R
LAURENS SUNNY 77 73 88 SW6 29.96R


...CENTRAL SOUTH CAROLINA...

CITY SKY/WX TMP DP RH WIND PRES REMARKS
COLUMBIA APT PTCLDY 78 74 87 W3 29.94R
COLUMBIA OWENS CLEAR 79 75 87 SW5 29.95R
MCENTIRE ANGB PTCLDY 75 75 100 CALM 29.95R
ORANGEBURG CLEAR 77 74 90 SW6 29.96R
SUMTER SHAW CLEAR 78 74 88 S3 29.92S
NEWBERRY SUNNY 75 73 94 SW6 29.99R
AIKEN FAIR 73 73 100 SW3 30.00S
BARNWELL FAIR 79 77 94 CALM 29.97R
MANNING FAIR 79 73 83 SW14 29.95S
CAMDEN FAIR 77 75 94 CALM 29.95R
LANCASTER SUNNY 75 75 100 SW3 29.95R
WINNSBORO SUNNY 77 73 88 SW5 29.96R


...EASTERN AND COASTAL SOUTH CAROLINA...

CITY SKY/WX TMP DP RH WIND PRES REMARKS
MYRTLE BEACH PTCLDY 82 79 89 SW7 29.95
N MYRTLE BCH MOCLDY 81 80 97 SW9 29.94R
CONWAY FAIR 77 77 100 SW5 29.94S
MARION FAIR 77 73 88 SW3 29.93S
HARTSVILLE FAIR 73 73 100 SW3 29.94R
FLORENCE CLEAR 78 78 100 SW7 29.94R
DARLINGTON CLEAR 76 76 100 S5 29.94R FOG
CHARLESTON APT PTCLDY 80 77 90 SW6 29.96R
MOUNT PLEASANT FAIR 82 79 89 SW6 29.96R
WALTERBORO CLOUDY 77 75 94 SW3 29.97S
BEAUFORT MOCLDY 81 77 88 CALM 29.96S


...EASTERN GEORGIA...

CITY SKY/WX TMP DP RH WIND PRES REMARKS
AUGUSTA BUSH F CLEAR 80 75 84 W6 29.96R
AUGUSTA DANIEL CLEAR 81 72 74 W5 29.98R
THOMSON CLEAR 75 73 94 NW5 30.03R
WASHINGTON FAIR N/A N/A N/A W5 29.99R
CLAXTON FAIR 78 76 92 SW3 29.97S
SYLVANIA SUNNY 76 76 100 CALM 29.98S
STATESBORO CLEAR 78 74 87 CALM 29.97S
SAVANNAH PTCLDY 78 75 90 SW5 29.97S


...SOUTHERN NORTH CAROLINA...

CITY SKY/WX TMP DP RH WIND PRES REMARKS
CHARLOTTE CLEAR 76 75 97 SW6 29.94S
MONROE CLEAR 74 72 93 SW5 29.93S
WADESBORO SUNNY 76 74 93 CALM 29.92S
ROCKINGHAM SUNNY 76 76 100 SW3 29.93S
RUTHERFORDTON CLEAR 71 71 100 CALM 29.98R
ASHEVILLE CLOUDY 69 32 25 NW5 30.04R

$$